Location: Street
(51.1247°N, 2.7429°W)
Time: 15:00:10
(UTC+01:00)

AIST 2D - Visible Passes

Search period start: 01 April 2023 00:00
Search period end: 11 April 2023 00:00
Orbit: 400 x 411 km, 97.0° (Epoch: 01 April)

Date Brightness Start Highest point End Pass type
(mag) Time Alt. Az. Time Alt. Az. Time Alt. Az.
01 Apr ? 22:35:16 10° NNE 22:35:49 14° NNE 22:35:49 14° NNE visible
02 Apr ? 23:18:48 10° N 23:19:39 16° NNW 23:19:39 16° NNW visible
03 Apr ? 22:29:54 10° NNE 22:30:40 16° NNE 22:30:40 16° NNE visible
04 Apr ? 23:13:12 10° N 23:14:21 19° NNW 23:14:21 19° NNW visible
05 Apr ? 22:24:16 10° NNE 22:25:14 18° NNE 22:25:14 18° NNE visible
05 Apr ? 23:57:29 10° NW 23:57:57 11° NW 23:57:57 11° NW visible
06 Apr ? 23:07:21 10° N 23:08:45 23° NNW 23:08:45 23° NNW visible
07 Apr ? 22:18:23 10° NNE 22:19:30 19° NE 22:19:30 19° NE visible
07 Apr ? 23:51:13 10° NNW 23:52:13 13° NW 23:52:13 13° NW visible
08 Apr ? 23:01:13 10° N 23:02:54 27° NNW 23:02:54 27° NNW visible
09 Apr ? 22:12:14 10° NNE 22:13:30 20° NE 22:13:30 20° NE visible
09 Apr ? 23:44:46 10° NNW 23:46:13 15° NW 23:46:13 15° NW visible
10 Apr ? 22:54:49 10° N 22:56:45 33° N 22:56:45 33° N visible
